FlightSource - Aviation Photo Database

World Wide Airport Lookup


Search by ICAO
Or
Search by City

FlightSource.ca - Aviation Photo Database - Thyna Airport Information
Airport Identification
Name: Thyna Airport
ICAO: DTTX
IATA: SFA
Airport Location
City:
Region: 61
Country: Tunisia
Continent: Africa
Latitude: 34.718
Longitude: 10.691
Airport Information
Type: Medium Airport
Elevation: 85 Feet ASL
Flight Status: DTTX
More Info: DTTX
Airport Weather    
Metar: DTTX 120600Z 24005KT 9999 FEW030 07/00 Q1017 NOSIG
TAF:


Advertisement